Tracking 18840 objects as of 18-November-2017
HD Live streaming from Space Station
objects crossing your sky now

NADEZHDA 5

Track NADEZHDA 5 now!
10-day predictions
NADEZHDA 5 is classified as:


NORAD ID: 25567
Int'l Code: 1998-072A
Perigee: 980.9 km
Apogee: 1,019.4 km
Inclination: 82.9 °
Period: 105.0 minutes
Semi major axis: 7371 km
RCS: 2.009 m2 (large)
Launch date: December 10, 1998
Source: Commonwealth of Independent States (former USSR) (CIS)
Launch site: PLESETSK MISSILE AND SPACE COMPLEX (PKMTR)

Out of service
aabbcc
Your satellite tracking list
Your tracking list is empty




NASA's NSSDC Master Catalog

Two Line Element Set (TLE):
1 25567U 98072A   17321.35056632 +.00000029 +00000-0 +14986-4 0  9998
2 25567 082.9498 235.6267 0026064 161.6522 338.1057 13.71827887947985
Source of the keplerian elements: AFSPC